Vertical_Velocity
-2 -2 -2 3 7 3 -3 -2 1 -0 6 3 4 3 -3 -0 -19 0 -12 -1 8 -1 4 -3 -0 3 3 4 1 0 2 -1 -3 1 -2 1 3 -0 0 -1 2 0 1 -1 -2 -2 -1
-1 -3 -2 -0 -2 -3 -2 -3 2 5 7 -1 5 -3 4 7 -4 1 -15 2 -0 -2 1 -4 1 5 4 -5 4 0 1 -1 -1 -2 1 -3 2 3 -3 -0 0 1 0 2 -1 0 -1
2 -1 -4 -2 -9 -3 3 -0 6 -0 4 -5 1 -1 2 -16 -28 -13 -4 0 -5 1 0 -2 1 5 -1 -2 4 -3 1 2 -2 -2 0 1 -1 -1 3 0 -2 -2 1 2 1 1 1
1 3 3 -6 4 -5 -4 3 -2 -2 2 4 -4 -4 -9 -2 2 -2 1 -2 -2 0 5 -11 -0 6 -2 -1 3 -2 1 2 -1 -2 -1 1 -3 -3 -4 -1 -1 2 0 1 2 -0 0
0 0 1 2 -6 -1 0 -1 -3 3 2 -5 -1 -0 -0 0 -1 -0 1 -2 5 8 -6 -6 1 9 3 3 -0 -2 0 -0 -1 -1 2 0 -1 -2 -1 1 0 1 -0 1 3 -0 0
1 -1 1 0 -0 -5 4 -4 -27 6 3 2 0 -1 -1 -1 1 1 1 1 13 -0 -8 2 7 -2 -1 -2 1 -2 1 -2 -1 -2 -1 -4 -3 -1 -2 -2 -0 1 -1 -2 0 3 -0
-1 -2 0 2 -1 -2 -2 5 -1 -13 4 0 3 3 -1 -2 -3 -0 4 9 1 -6 -17 5 11 -1 -0 2 -1 0 -0 -3 -4 1 0 -0 -10 0 3 2 1 1 1 1 -1 3 0
2 1 -3 -1 4 -1 -1 -1 5 1 4 2 1 0 0 -1 0 1 3 2 -0 -7 0 4 3 -6 1 0 4 -1 -4 4 3 -0 -1 -3 -1 2 0 0 1 0 1 -0 -2 0 3
-2 0 1 -1 -2 1 0 -1 0 -0 -2 1 -1 1 -2 1 -0 -1 2 -4 -1 -2 -0 0 -3 -2 -2 -1 -1 -3 -5 -2 -1 -2 0 -3 4 -0 1 -0 -0 1 0 0 0 -3 1
-0 -3 1 -2 -1 -1 -1 -0 -2 -1 3 -0 -2 -1 -1 -2 -1 -1 -0 -0 1 -1 -3 0 -1 -3 2 -2 0 -1 -2 -4 0 0 -0 -0 1 1 -0 1 2 0 1 1 0 -3 -2
-1 1 -3 2 1 -0 -0 -2 -1 -1 -2 -1 2 1 1 2 -1 -0 1 1 -2 -3 -7 -3 1 -2 -3 -2 -2 0 -0 5 1 1 -5 -2 1 0 1 3 1 4 1 1 0 0 0
1 -1 -0 -2 2 1 1 -1 2 0 0 -1 -1 -2 -1 0 -1 -2 -1 -1 -1 -15 -5 -2 -1 -0 3 1 0 -2 -1 -3 -3 -1 -2 2 -2 1 5 0 1 1 2 1 0 0 -3
-1 2 1 -0 -2 1 1 1 -1 -2 -0 2 0 0 -0 -1 -1 -1 -0 -2 -14 -4 -3 -0 2 -1 0 0 1 -1 1 0 2 -7 -4 2 2 1 0 3 3 1 -4 -3 -8 -4 -6
-0 -1 1 2 0 -1 -1 -0 -0 1 -1 -2 -2 -1 -1 -1 -1 -1 -1 -3 -8 1 1 1 0 1 1 1 2 1 1 1 1 0 -0 -1 -6 2 2 2 1 1 0 -5 -3 -1 -4
1 0 1 1 2 0 1 1 0 0 0 -0 -2 -3 -5 -2 -1 -2 -3 -5 2 1 0 -0 2 2 1 1 2 2 0 1 1 1 1 -1 2 2 1 0 2 2 0 2 -2 -1 -2
2 1 -0 1 2 2 1 -1 0 0 0 -0 -1 -3 1 -2 -2 0 -5 -1 0 1 0 0 2 3 0 1 3 2 0 2 1 1 1 2 -0 1 3 2 2 3 2 -4 -3 -4 -2
-2 -0 -0 -1 -2 -1 1 3 0 -0 1 0 -2 1 -1 -0 -1 -1 -2 1 0 -0 0 2 1 1 2 1 2 0 3 3 -0 1 0 1 -2 0 -0 -0 -2 1 1 1 -2 -2 -1
-2 -1 -2 -0 -0 -2 -2 -2 0 0 -2 -0 -0 -1 -2 -2 -4 1 -0 2 0 1 -3 1 2 1 1 0 0 -0 2 1 -1 0 1 3 2 -0 -1 3 1 2 1 -2 -4 -1 -1
-3 -1 1 -1 -2 -1 -1 -0 -0 -1 -3 -4 -1 -0 -0 -2 -1 0 1 1 2 1 0 0 0 1 1 1 2 -0 0 0 -1 1 2 3 -2 -3 -4 -4 1 1 -1 0 0 -2 -3
2 -2 -2 -2 -3 -3 -2 -2 -5 1 2 0 -4 -3 -3 -3 -0 0 0 1 1 -2 1 -1 2 0 1 1 1 2 0 2 -1 2 -2 -2 0 -2 -6 -4 -1 1 0 0 -1 -0 -3
2 2 -1 -1 -1 -2 -3 -5 -1 -5 -2 0 -3 1 1 -1 -2 0 0 0 0 1 -0 -2 1 1 2 0 0 -0 0 2 1 -1 -0 2 1 1 -1 -0 1 -0 -0 -1 2 -6 -1
-1 1 1 0 1 -1 -3 -1 -4 -4 -5 -6 0 -1 -2 -0 -1 1 0 2 0 2 1 2 1 1 0 1 3 1 0 0 -1 5 0 1 -3 0 -2 -1 1 1 -1 0 -0 -1 2
-2 -2 1 2 -1 2 -3 -5 2 -3 -4 -2 -2 1 -2 -1 -0 2 2 2 2 -0 2 0 1 1 2 1 2 1 2 0 4 -2 -1 -0 -0 -1 -4 0 -1 -1 -3 -2 -1 0 -3
-2 -2 -6 2 0 -1 4 -6 -7 1 -3 -3 -0 -1 3 -0 1 1 0 -1 0 1 2 3 -2 2 0 0 -3 2 -1 -0 2 -3 2 0 1 0 -2 -1 -1 -12 0 -0 -0 -1 0
1 -1 -2 -10 3 -3 -1 2 -2 -7 -2 -1 0 -2 1 -1 2 1 1 0 -0 -1 -2 -0 3 -3 -3 -3 -0 0 3 0 1 1 -1 2 0 -1 0 0 -11 1 -1 -1 -3 -6 -1
-3 2 1 2 -7 -4 4 -3 2 -1 -4 -4 -1 1 -0 2 3 -1 0 2 1 -0 3 0 0 1 -1 0 0 0 -1 -1 2 2 -0 -0 1 3 1 1 -1 -1 1 0 -3 -4 0
-1 -1 -3 -0 5 0 -5 -1 -3 1 1 -3 -3 -4 -1 1 3 -0 1 0 -1 -1 1 0 -1 -1 -0 0 1 -0 -2 -1 -1 -1 -1 1 1 -1 -1 -0 -9 -1 -1 -1 -1 -13 0
-1 -1 1 -4 1 1 -1 2 -1 -0 -1 3 -0 -3 -3 -1 -7 0 1 1 -1 -0 1 2 -0 0 1 1 2 -3 1 -1 -1 -1 -4 -5 -3 -1 2 3 -8 0 2 0 1 -1 -2
-1 1 0 3 -4 1 -1 -4 0 0 -2 -1 2 3 -2 -2 -4 2 -2 1 -2 -0 -1 2 0 -1 -0 1 -0 -0 -1 1 -1 -2 1 -3 -8 -6 -10 -13 -0 -3 -1 -4 3 1 2
Height
1495 1490 1486 1482 1478 1476 1474 1472 1470 1471 1471 1471 1470 1470 1471 1473 1474 1477 1479 1488 1490 1493 1495 1498 1501 1503 1504 1508 1509 1509 1510 1511 1512 1513 1514 1515 1518 1518 1519 1519 1520 1520 1525 1527 1529 1530 1531
1502 1498 1494 1489 1484 1481 1478 1477 1477 1476 1476 1476 1474 1474 1476 1480 1479 1479 1487 1492 1495 1496 1499 1502 1503 1505 1505 1509 1510 1510 1511 1512 1514 1515 1515 1515 1518 1519 1522 1523 1524 1524 1525 1527 1529 1530 1530
1510 1506 1502 1498 1492 1489 1487 1484 1484 1484 1483 1482 1482 1482 1482 1485 1487 1489 1494 1497 1499 1500 1504 1505 1506 1505 1506 1511 1512 1511 1512 1514 1514 1516 1516 1516 1519 1520 1524 1526 1527 1526 1527 1527 1529 1529 1530
1516 1513 1510 1506 1503 1499 1497 1495 1493 1492 1491 1490 1490 1489 1491 1494 1496 1498 1500 1501 1503 1505 1506 1507 1507 1508 1511 1513 1513 1512 1514 1517 1516 1517 1519 1519 1520 1521 1524 1528 1529 1528 1527 1529 1530 1529 1530
1522 1519 1516 1514 1511 1509 1506 1505 1502 1501 1500 1499 1498 1499 1499 1499 1499 1501 1502 1504 1505 1507 1507 1509 1509 1511 1516 1515 1514 1514 1517 1517 1518 1519 1521 1520 1522 1524 1527 1529 1532 1528 1531 1524 1531 1530 1529
1527 1524 1521 1519 1517 1515 1513 1512 1510 1508 1506 1505 1505 1504 1504 1504 1504 1505 1506 1506 1509 1509 1511 1511 1512 1514 1518 1519 1516 1517 1518 1518 1519 1521 1522 1522 1524 1526 1529 1534 1546 1535 1531 1523 1525 1530 1528
1531 1528 1525 1523 1521 1519 1517 1516 1515 1513 1511 1509 1508 1508 1508 1508 1508 1508 1507 1508 1512 1515 1514 1516 1517 1516 1518 1519 1518 1519 1520 1520 1521 1524 1523 1526 1533 1541 1538 1537 1537 1536 1533 1531 1522 1529 1531
1534 1532 1529 1526 1524 1522 1520 1519 1517 1515 1513 1513 1512 1511 1511 1510 1509 1509 1508 1509 1511 1517 1520 1520 1520 1519 1519 1519 1521 1521 1521 1523 1522 1526 1525 1531 1544 1541 1539 1539 1538 1535 1535 1533 1527 1528 1532
1536 1534 1532 1529 1527 1525 1523 1521 1519 1518 1516 1515 1514 1513 1512 1510 1509 1509 1509 1512 1514 1515 1517 1523 1522 1521 1522 1522 1524 1524 1524 1524 1526 1529 1529 1534 1541 1539 1539 1538 1536 1532 1536 1541 1545 1534 1525
1538 1536 1533 1531 1529 1527 1525 1523 1521 1519 1518 1517 1515 1514 1514 1513 1515 1512 1514 1515 1515 1515 1520 1526 1524 1525 1525 1524 1528 1527 1526 1529 1531 1532 1532 1538 1540 1539 1539 1537 1540 1536 1539 1540 1540 1545 1551
1541 1538 1536 1533 1531 1528 1525 1524 1522 1520 1518 1516 1516 1515 1514 1514 1514 1514 1516 1515 1515 1515 1532 1529 1526 1526 1525 1526 1529 1528 1527 1527 1529 1532 1533 1541 1540 1540 1538 1541 1540 1540 1541 1542 1542 1549 1543
1543 1541 1538 1536 1532 1529 1527 1524 1521 1520 1518 1517 1516 1515 1514 1514 1514 1515 1515 1515 1516 1526 1539 1533 1528 1526 1526 1525 1527 1528 1528 1529 1531 1530 1532 1540 1541 1542 1542 1542 1542 1542 1542 1541 1540 1547 1557
1547 1544 1541 1538 1535 1531 1528 1525 1522 1520 1518 1518 1517 1516 1515 1514 1515 1515 1515 1516 1528 1529 1532 1531 1528 1524 1523 1527 1527 1528 1528 1531 1532 1544 1554 1540 1541 1543 1544 1543 1543 1542 1554 1560 1559 1549 1549
1550 1548 1544 1541 1538 1535 1531 1527 1523 1520 1519 1518 1518 1517 1516 1515 1515 1515 1516 1518 1532 1526 1527 1529 1527 1526 1526 1530 1530 1529 1529 1533 1533 1532 1542 1548 1556 1542 1544 1543 1543 1540 1543 1560 1559 1560 1554
1554 1552 1548 1545 1541 1538 1534 1530 1525 1521 1519 1518 1518 1518 1517 1516 1515 1516 1518 1530 1531 1526 1526 1527 1529 1525 1529 1529 1530 1528 1528 1531 1536 1536 1540 1539 1544 1543 1542 1542 1544 1541 1548 1543 1551 1535 1553
1557 1554 1552 1548 1544 1541 1536 1533 1528 1524 1520 1519 1518 1518 1518 1517 1516 1517 1520 1529 1531 1531 1530 1528 1525 1527 1524 1528 1530 1528 1529 1534 1537 1538 1537 1537 1545 1539 1543 1543 1543 1542 1543 1551 1557 1555 1548
1558 1556 1553 1550 1547 1543 1539 1535 1530 1526 1521 1519 1519 1520 1520 1518 1518 1519 1527 1531 1531 1533 1532 1531 1527 1526 1526 1526 1529 1527 1531 1537 1536 1538 1537 1537 1540 1544 1541 1542 1539 1546 1544 1544 1544 1545 1550
1560 1558 1555 1552 1549 1546 1541 1537 1533 1528 1524 1521 1521 1522 1521 1519 1521 1520 1528 1529 1531 1533 1533 1532 1531 1530 1529 1530 1529 1530 1531 1534 1537 1537 1537 1540 1540 1550 1533 1536 1536 1537 1534 1534 1555 1539 1543
1560 1558 1556 1554 1551 1548 1545 1540 1535 1531 1526 1523 1524 1523 1522 1520 1525 1528 1531 1533 1533 1533 1533 1533 1533 1534 1533 1532 1535 1533 1534 1539 1538 1538 1539 1539 1541 1557 1540 1541 1539 1539 1534 1534 1534 1545 1547
1560 1558 1556 1554 1552 1549 1546 1542 1538 1533 1529 1526 1526 1528 1526 1524 1526 1526 1528 1531 1533 1535 1535 1535 1535 1535 1534 1533 1535 1535 1534 1538 1538 1539 1540 1540 1539 1540 1550 1537 1535 1537 1533 1533 1538 1556 1538
1560 1558 1556 1554 1552 1550 1548 1545 1541 1537 1532 1530 1529 1533 1534 1532 1529 1529 1529 1530 1532 1533 1536 1536 1535 1535 1534 1534 1535 1535 1535 1537 1539 1539 1540 1541 1543 1537 1537 1533 1533 1533 1532 1530 1536 1529 1532
1559 1558 1556 1554 1552 1550 1548 1546 1543 1540 1536 1534 1534 1535 1535 1534 1533 1530 1531 1532 1532 1534 1534 1535 1536 1534 1534 1536 1534 1534 1534 1534 1532 1539 1539 1539 1543 1535 1539 1526 1527 1527 1520 1520 1519 1518 1518
1558 1557 1556 1554 1552 1550 1548 1546 1544 1542 1540 1538 1538 1537 1536 1535 1533 1532 1534 1533 1533 1534 1535 1535 1535 1535 1535 1535 1534 1534 1533 1532 1532 1534 1538 1539 1541 1542 1539 1523 1525 1524 1505 1505 1508 1506 1509
1555 1555 1555 1554 1552 1551 1548 1546 1546 1544 1542 1542 1541 1539 1537 1534 1534 1534 1534 1535 1534 1534 1536 1535 1535 1535 1536 1534 1533 1531 1532 1531 1532 1531 1532 1534 1538 1541 1543 1531 1534 1501 1499 1499 1499 1497 1500
1554 1554 1553 1553 1552 1551 1549 1547 1545 1545 1545 1543 1542 1541 1541 1538 1535 1534 1535 1534 1532 1533 1534 1533 1533 1533 1533 1534 1533 1529 1531 1532 1530 1532 1534 1535 1538 1542 1542 1533 1513 1498 1501 1499 1498 1497 1496
1551 1551 1552 1551 1550 1550 1549 1547 1545 1543 1543 1543 1543 1542 1541 1541 1537 1537 1536 1535 1535 1530 1531 1531 1532 1532 1532 1532 1532 1532 1525 1515 1530 1536 1535 1536 1537 1543 1535 1536 1520 1494 1497 1497 1498 1504 1497
1546 1547 1548 1548 1548 1546 1546 1545 1544 1543 1541 1541 1541 1541 1541 1540 1537 1535 1535 1536 1534 1533 1532 1531 1532 1533 1533 1531 1533 1531 1524 1517 1520 1523 1537 1537 1538 1535 1534 1532 1514 1491 1495 1497 1503 1501 1496
1540 1542 1542 1543 1543 1542 1542 1542 1541 1540 1540 1540 1538 1538 1540 1539 1535 1534 1534 1533 1533 1533 1532 1532 1532 1531 1534 1535 1531 1523 1521 1517 1518 1511 1520 1524 1529 1531 1528 1524 1517 1492 1497 1499 1496 1494 1494
1534 1534 1536 1536 1537 1537 1536 1538 1538 1537 1537 1537 1537 1535 1535 1537 1533 1531 1530 1530 1530 1532 1532 1530 1529 1528 1527 1527 1525 1524 1523 1519 1514 1515 1505 1515 1505 1508 1508 1498 1489 1490 1491 1492 1491 1489 1489